Weather History for Bentonville, AR

Change the Weather History Date:

Saturday, December 3, 2011

  Actual Average Record
Temperature  
Mean Temperature 53 °F -  
Max Temperature 60 °F 51 °F 73 °F (1956)
Min Temperature 46 °F 29 °F 8 °F (1985)
Degree Days  
Heating Degree Days 12    
Growing Degree Days 3 (Base 50)    
Moisture  
Dew Point 46 °F    
Average Humidity 75    
Maximum Humidity 94    
Minimum Humidity 58    
Precipitation  
Precipitation 0.76 in - - ()
Sea Level Pressure  
Sea Level Pressure 30.04 in    
Wind  
Wind Speed 10 mph (SSE)    
Max Wind Speed 21 mph    
Max Gust Speed 32 mph    
Visibility 9 miles    
Events      
Averages and records for this station are not official NWS values.
T = Trace of Precipitation, MM = Missing Value Source: NWS Daily Summary

Daily Weather History Graph

Daily Weather History Graph

Search for Another Location

Airport:

Trip Planner

Search our weather history database for the weather conditions in past years. The results will help you decide how hot, cold, wet, or windy it might be!

Date:

Astronomy

Dec. 03, 2011 Rise Set
Actual Time 7:11 AM CST 5:01 PM CST
Civil Twilight 6:43 AM CST 5:30 PM CST
Nautical Twilight 6:11 AM CST 6:01 PM CST
Astronomical Twilight 5:40 AM CST 6:33 PM CST
Moon 12:58 PM CST (12/3) 12:49 AM CST (12/3)
Length of Visible Light 10h 46m
Length of Day
9h 50m
Waxing Gibbous, 63% of the Moon is Illuminated
Dec 3
Waxing Gibbous
Dec 10
Full
Dec 17
Last Quarter
Dec 24
New
Jan 1
First Quarter

Hourly Weather History & Observations

Time (CST) Temp. Windchill Dew Point Humidity Pressure Visibility Wind Dir Wind Speed Gust Speed Precip Events Conditions
12:15 AM 51.8 °F - 39.2 °F 62% 30.20 in 10.0 mi SSE 6.9 mph - N/A   Overcast
12:35 AM 50.0 °F - 39.2 °F 66% 30.20 in 10.0 mi SE 6.9 mph - N/A   Overcast
12:55 AM 50.0 °F - 39.2 °F 66% 30.18 in 10.0 mi SE 11.5 mph - N/A   Overcast
1:15 AM 51.8 °F - 39.2 °F 62% 30.19 in 10.0 mi SSE 9.2 mph - N/A   Overcast
1:35 AM 51.8 °F - 39.2 °F 62% 30.18 in 10.0 mi SSE 8.1 mph - N/A   Overcast
1:55 AM 51.8 °F - 37.4 °F 58% 30.19 in 10.0 mi SSE 8.1 mph - N/A   Overcast
2:15 AM 51.8 °F - 37.4 °F 58% 30.19 in 10.0 mi South 6.9 mph - N/A   Overcast
2:35 AM 50.0 °F - 39.2 °F 66% 30.18 in 10.0 mi SSE 6.9 mph - N/A   Overcast
2:55 AM 48.2 °F - 39.2 °F 71% 30.18 in 10.0 mi SSE 5.8 mph - N/A   Overcast
3:15 AM 48.2 °F - 41.0 °F 76% 30.15 in 10.0 mi SE 8.1 mph - 0.01 in   Overcast
3:35 AM 48.2 °F - 39.2 °F 71% 30.14 in 10.0 mi SE 9.2 mph - 0.01 in   Overcast
3:55 AM 48.2 °F - 39.2 °F 71% 30.14 in 10.0 mi SE 5.8 mph - 0.01 in   Overcast
4:15 AM 48.2 °F - 39.2 °F 71% 30.14 in 10.0 mi SE 9.2 mph - N/A   Overcast
4:35 AM 48.2 °F - 37.4 °F 66% 30.14 in 10.0 mi SE 9.2 mph - N/A   Overcast
4:55 AM 48.2 °F - 35.6 °F 62% 30.15 in 10.0 mi SE 8.1 mph - N/A   Overcast
5:15 AM 48.2 °F - 35.6 °F 62% 30.14 in 10.0 mi SE 9.2 mph - N/A   Overcast
5:35 AM 48.2 °F - 33.8 °F 58% 30.14 in 10.0 mi SE 9.2 mph - N/A   Scattered Clouds
6:15 AM 48.2 °F - 33.8 °F 58% 30.12 in 10.0 mi SE 10.4 mph - N/A   Clear
6:35 AM 48.2 °F - 33.8 °F 58% 30.12 in 10.0 mi SE 9.2 mph - N/A   Clear
6:55 AM 48.2 °F - 35.6 °F 62% 30.12 in 10.0 mi SE 9.2 mph - N/A   Clear
7:15 AM 46.4 °F 41.1 °F 35.6 °F 66% 30.12 in 10.0 mi SE 11.5 mph - N/A   Clear
7:35 AM 46.4 °F 41.1 °F 35.6 °F 66% 30.12 in 10.0 mi SE 11.5 mph - N/A   Clear
7:55 AM 48.2 °F - 35.6 °F 62% 30.13 in 10.0 mi SE 10.4 mph - N/A   Clear
8:15 AM 48.2 °F - 37.4 °F 66% 30.11 in 10.0 mi SE 11.5 mph - N/A   Clear
8:55 AM 53.6 °F - 42.8 °F 67% 30.08 in 10.0 mi SSE 15.0 mph 19.6 mph N/A   Clear
9:15 AM 55.4 °F - 44.6 °F 67% 30.07 in 10.0 mi SSE 15.0 mph 23.0 mph N/A   Clear
9:35 AM 57.2 °F - 44.6 °F 63% 30.06 in 10.0 mi SSE 19.6 mph 25.3 mph N/A   Clear
9:55 AM 57.2 °F - 44.6 °F 63% 30.06 in 10.0 mi South 17.3 mph 26.5 mph N/A   Clear
10:15 AM 57.2 °F - 46.4 °F 67% 30.05 in 10.0 mi South 18.4 mph 25.3 mph N/A   Partly Cloudy
10:35 AM 57.2 °F - 46.4 °F 67% 30.03 in 10.0 mi SSE 18.4 mph 25.3 mph N/A   Partly Cloudy
10:55 AM 57.2 °F - 48.2 °F 72% 30.01 in 10.0 mi SSE 12.7 mph 26.5 mph N/A   Partly Cloudy
11:15 AM 59.0 °F - 48.2 °F 67% 29.99 in 10.0 mi SSE 20.7 mph 29.9 mph N/A   Mostly Cloudy
11:35 AM 59.0 °F - 48.2 °F 67% 29.96 in 10.0 mi SSE 17.3 mph 28.8 mph N/A   Mostly Cloudy
11:55 AM 60.8 °F - 48.2 °F 63% 29.96 in 10.0 mi SSE 16.1 mph 23.0 mph N/A   Mostly Cloudy
12:15 PM 59.0 °F - 48.2 °F 67% 29.96 in 10.0 mi South 16.1 mph 29.9 mph N/A   Mostly Cloudy
12:35 PM 60.8 °F - 50.0 °F 68% 29.96 in 10.0 mi South 15.0 mph 27.6 mph N/A   Overcast
12:55 PM 59.0 °F - 51.8 °F 77% 29.95 in 10.0 mi South 16.1 mph 28.8 mph N/A   Overcast
1:15 PM 57.2 °F - 51.8 °F 82% 29.94 in 10.0 mi South 19.6 mph 24.2 mph N/A   Overcast
1:35 PM 59.0 °F - 51.8 °F 77% 29.93 in 10.0 mi South 19.6 mph 29.9 mph N/A   Mostly Cloudy
1:55 PM 57.2 °F - 51.8 °F 82% 29.92 in 8.0 mi South 20.7 mph 32.2 mph 0.02 in   Mostly Cloudy
2:15 PM 57.2 °F - 51.8 °F 82% 29.93 in 9.0 mi South 10.4 mph 24.2 mph 0.04 in   Overcast
2:35 PM 57.2 °F - 51.8 °F 82% 29.94 in 9.0 mi South 15.0 mph 23.0 mph 0.11 in   Overcast
2:55 PM 55.4 °F - 51.8 °F 88% 29.94 in 7.0 mi South 16.1 mph 20.7 mph 0.19 in   Mostly Cloudy
3:35 PM 55.4 °F - 53.6 °F 94% 29.93 in 9.0 mi South 12.7 mph 19.6 mph 0.02 in   Overcast
3:55 PM 55.4 °F - 53.6 °F 94% 29.92 in 10.0 mi South 12.7 mph 24.2 mph 0.05 in   Overcast
4:15 PM 57.2 °F - 53.6 °F 88% 29.92 in 8.0 mi South 13.8 mph 20.7 mph 0.04 in   Overcast
4:55 PM 57.2 °F - 53.6 °F 88% 29.95 in 6.0 mi South 12.7 mph 20.7 mph 0.08 in   Mostly Cloudy
5:15 PM 55.4 °F - 53.6 °F 94% 29.94 in 9.0 mi South 12.7 mph - 0.01 in   Overcast
5:35 PM 55.4 °F - 53.6 °F 94% 29.94 in 8.0 mi South 9.2 mph 16.1 mph 0.01 in   Overcast
5:55 PM 55.4 °F - 53.6 °F 94% 29.94 in 5.0 mi South 9.2 mph 16.1 mph 0.03 in   Overcast
6:15 PM 55.4 °F - 53.6 °F 94% 29.95 in 5.0 mi SW 6.9 mph - 0.03 in   Overcast
6:35 PM 55.4 °F - 53.6 °F 94% 29.96 in 5.0 mi SW 10.4 mph 16.1 mph 0.11 in   Overcast
6:55 PM 55.4 °F - 53.6 °F 94% 29.95 in 8.0 mi SSW 8.1 mph - 0.23 in   Mostly Cloudy
7:15 PM 55.4 °F - 53.6 °F 94% 29.96 in 9.0 mi SW 10.4 mph - 0.02 in   Mostly Cloudy
7:35 PM 55.4 °F - 53.6 °F 94% 29.97 in 9.0 mi SW 9.2 mph - 0.07 in   Overcast
7:55 PM 55.4 °F - 53.6 °F 94% 29.97 in 10.0 mi SSW 8.1 mph - 0.14 in   Overcast
8:15 PM 55.4 °F - 53.6 °F 94% 29.96 in 10.0 mi SSW 5.8 mph - 0.01 in   Overcast
8:35 PM 57.2 °F - 55.4 °F 94% 29.97 in 10.0 mi SW 10.4 mph - 0.01 in   Overcast
8:55 PM 57.2 °F - 55.4 °F 94% 29.98 in 10.0 mi WSW 9.2 mph - 0.01 in   Overcast
9:15 PM 55.4 °F - 53.6 °F 94% 29.99 in 10.0 mi WSW 9.2 mph - N/A   Mostly Cloudy
9:35 PM 55.4 °F - 53.6 °F 94% 29.99 in 10.0 mi West 8.1 mph - N/A   Overcast
9:55 PM 55.4 °F - 51.8 °F 88% 29.99 in 10.0 mi WSW 5.8 mph - 0.01 in   Overcast
10:15 PM 53.6 °F - 48.2 °F 82% 30.00 in 10.0 mi WNW 13.8 mph 19.6 mph N/A   Overcast
10:55 PM 48.2 °F - 44.6 °F 87% 30.01 in 10.0 mi WNW 9.2 mph - N/A   Overcast
11:35 PM 48.2 °F - 44.6 °F 87% 30.03 in 10.0 mi West 10.4 mph - N/A   Overcast
11:55 PM 48.2 °F - 44.6 °F 87% 30.03 in 10.0 mi NW 8.1 mph - N/A   Overcast